When you browse on this site, cookies collect data to enhance your experience and personalize the content and advertising you see.
Visit our Privacy Policy to learn more. By continuing to use the site, you agree to this use of cookies and data.
  • In Lithuania
  • List of Countries
  • For 7 days
  • Water Temperature
  • Weather Map
  • Weather Widgets
  • user-avatar
    Login

    Hourly Weather Solden

    Today, 17 August, Saturday

    Time Temperature Precipitation Wind Pressure Humidity
    00:00 +5°C° 0 mm 0 mps 584 mmHg 92%
    01:00 +5°C° 0 mm 1 mps 584 mmHg 93%
    02:00 +5°C° 0 mm 1 mps 584 mmHg 92%
    03:00 +5°C° 0 mm 1 mps 584 mmHg 92%
    04:00 +5°C° 0 mm 1 mps 583 mmHg 92%
    05:00 +5°C° 0 mm 0 mps 584 mmHg 87%
    06:00 +6°C° 0 mm 0 mps 585 mmHg 82%
    07:00 +7°C° 0 mm 0 mps 586 mmHg 77%
    08:00 +9°C° 0 mm 0 mps 586 mmHg 70%
    09:00 +12°C° 0 mm 1 mps 587 mmHg 64%
    10:00 +14°C° 0 mm 1 mps 588 mmHg 57%
    11:00 +15°C° 0 mm 1 mps 588 mmHg 55%
    12:00 +16°C° 0 mm 2 mps 589 mmHg 53%
    13:00 +17°C° 0 mm 2 mps 589 mmHg 51%
    14:00 +16°C° 0 mm 2 mps 589 mmHg 54%
    15:00 +16°C° 0 mm 2 mps 588 mmHg 57%
    16:00 +16°C° 0 mm 2 mps 588 mmHg 61%
    17:00 +14°C° 0.1 mm 1 mps 587 mmHg 70%
    18:00 +12°C° 0.1 mm 1 mps 587 mmHg 80%
    19:00 +11°C° 0.1 mm 1 mps 586 mmHg 90%
    20:00 +10°C° 0 mm 1 mps 586 mmHg 92%
    21:00 +8°C° 0 mm 0 mps 586 mmHg 93%
    22:00 +8°C° 0 mm 0 mps 586 mmHg 95%
    23:00 +8°C° 0 mm 0 mps 585 mmHg 95%

    Tomorrow, 18 August, Sunday

    Time Temperature Precipitation Wind Pressure Humidity
    00:00 +8°C° 0 mm 0 mps 585 mmHg 96%
    01:00 +7°C° 0 mm 0 mps 585 mmHg 96%
    02:00 +7°C° 0 mm 0 mps 585 mmHg 96%
    03:00 +6°C° 0 mm 0 mps 584 mmHg 95%
    04:00 +6°C° 0 mm 0 mps 584 mmHg 95%
    05:00 +7°C° 0 mm 0 mps 584 mmHg 92%
    06:00 +8°C° 0 mm 0 mps 585 mmHg 90%
    07:00 +9°C° 0 mm 0 mps 585 mmHg 87%
    08:00 +12°C° 0 mm 1 mps 586 mmHg 80%
    09:00 +13°C° 0 mm 1 mps 587 mmHg 74%
    10:00 +15°C° 0 mm 1 mps 588 mmHg 68%
    11:00 +16°C° 0 mm 2 mps 588 mmHg 64%
    12:00 +16°C° 0 mm 2 mps 588 mmHg 61%
    13:00 +17°C° 0 mm 2 mps 588 mmHg 57%
    14:00 +17°C° 0.1 mm 2 mps 588 mmHg 59%
    15:00 +17°C° 0.1 mm 2 mps 588 mmHg 62%
    16:00 +17°C° 0.1 mm 2 mps 588 mmHg 64%
    17:00 +15°C° 0.2 mm 2 mps 587 mmHg 73%
    18:00 +13°C° 0.2 mm 1 mps 586 mmHg 82%
    19:00 +12°C° 0.2 mm 1 mps 586 mmHg 92%
    20:00 +11°C° 0.1 mm 1 mps 586 mmHg 93%
    21:00 +10°C° 0.1 mm 1 mps 585 mmHg 95%
    22:00 +9°C° 0.1 mm 1 mps 585 mmHg 96%
    23:00 +9°C° 0 mm 1 mps 585 mmHg 96%

    Day after tomorrow, 19 August, Monday

    Time Temperature Precipitation Wind Pressure Humidity
    00:00 +9°C° 0 mm 1 mps 585 mmHg 96%
    01:00 +9°C° 0 mm 1 mps 585 mmHg 96%
    02:00 +8°C° 0 mm 1 mps 585 mmHg 96%
    03:00 +8°C° 0 mm 1 mps 585 mmHg 95%
    04:00 +7°C° 0 mm 0 mps 585 mmHg 95%
    05:00 +8°C° 0 mm 0 mps 585 mmHg 93%
    06:00 +8°C° 0 mm 0 mps 586 mmHg 91%
    07:00 +9°C° 0 mm 0 mps 587 mmHg 89%
    08:00 +11°C° 0 mm 0 mps 587 mmHg 82%
    09:00 +14°C° 0 mm 1 mps 588 mmHg 75%
    10:00 +15°C° 0 mm 1 mps 589 mmHg 68%
    11:00 +16°C° 0.5 mm 1 mps 589 mmHg 67%
    12:00 +16°C° 0.5 mm 1 mps 590 mmHg 66%
    13:00 +18°C° 0.5 mm 1 mps 590 mmHg 65%
    14:00 +16°C° 1.2 mm 1 mps 589 mmHg 71%
    15:00 +15°C° 1.2 mm 1 mps 589 mmHg 76%
    16:00 +15°C° 1.2 mm 1 mps 589 mmHg 82%
    17:00 +14°C° 1.5 mm 1 mps 588 mmHg 85%
    18:00 +12°C° 1.5 mm 1 mps 588 mmHg 89%
    19:00 +11°C° 1.5 mm 1 mps 587 mmHg 92%
    20:00 +11°C° 0.9 mm 1 mps 587 mmHg 93%
    21:00 +10°C° 0.9 mm 1 mps 587 mmHg 93%
    22:00 +10°C° 0.9 mm 1 mps 587 mmHg 93%
    23:00 +10°C° 0.6 mm 1 mps 587 mmHg 93%

    20 August, Tuesday

    Time Temperature Precipitation Wind Pressure Humidity
    00:00 +10°C° 0.6 mm 1 mps 587 mmHg 93%
    01:00 +10°C° 0.6 mm 1 mps 587 mmHg 93%
    02:00 +8°C° 0.3 mm 0 mps 587 mmHg 94%
    03:00 +8°C° 0.3 mm 0 mps 587 mmHg 94%
    04:00 +8°C° 0.3 mm 0 mps 587 mmHg 95%
    05:00 +8°C° 0.4 mm 0 mps 587 mmHg 95%
    06:00 +9°C° 0.4 mm 0 mps 587 mmHg 95%
    07:00 +9°C° 0.4 mm 0 mps 587 mmHg 95%
    08:00 +11°C° 0.4 mm 1 mps 587 mmHg 91%
    09:00 +12°C° 0.4 mm 1 mps 588 mmHg 88%
    10:00 +13°C° 0.4 mm 2 mps 588 mmHg 85%
    11:00 +14°C° 0.8 mm 2 mps 588 mmHg 83%
    12:00 +15°C° 0.8 mm 2 mps 589 mmHg 81%
    13:00 +15°C° 0.8 mm 2 mps 589 mmHg 78%
    14:00 +15°C° 0.8 mm 2 mps 589 mmHg 77%
    15:00 +15°C° 0.8 mm 2 mps 589 mmHg 76%
    16:00 +15°C° 0.8 mm 2 mps 589 mmHg 75%
    17:00 +14°C° 0.9 mm 2 mps 589 mmHg 80%
    18:00 +12°C° 0.9 mm 2 mps 589 mmHg 85%
    19:00 +11°C° 0.9 mm 1 mps 589 mmHg 90%
    20:00 +9°C° 0.6 mm 2 mps 588 mmHg 90%
    21:00 +8°C° 0.6 mm 2 mps 588 mmHg 91%
    22:00 +7°C° 0.6 mm 2 mps 588 mmHg 91%
    23:00 +6°C° 1 mm 2 mps 588 mmHg 92%

    21 August, Wednesday

    Time Temperature Precipitation Wind Pressure Humidity
    00:00 +6°C° 1 mm 2 mps 587 mmHg 93%
    01:00 +6°C° 1 mm 2 mps 587 mmHg 94%
    02:00 +6°C° 1.2 mm 2 mps 587 mmHg 94%
    03:00 +5°C° 1.2 mm 2 mps 587 mmHg 94%
    04:00 +5°C° 1.2 mm 2 mps 587 mmHg 94%
    05:00 +5°C° 0.2 mm 2 mps 587 mmHg 93%
    06:00 +6°C° 0.2 mm 2 mps 588 mmHg 92%
    07:00 +6°C° 0.2 mm 2 mps 588 mmHg 90%
    08:00 +9°C° 0 mm 1 mps 589 mmHg 82%
    09:00 +11°C° 0 mm 1 mps 590 mmHg 74%
    10:00 +12°C° 0 mm 1 mps 591 mmHg 65%
    11:00 +14°C° 0.1 mm 1 mps 591 mmHg 62%
    12:00 +15°C° 0.1 mm 1 mps 592 mmHg 59%
    13:00 +16°C° 0.1 mm 1 mps 592 mmHg 56%
    14:00 +16°C° 0.2 mm 1 mps 592 mmHg 59%
    15:00 +15°C° 0.2 mm 1 mps 591 mmHg 62%
    16:00 +15°C° 0.2 mm 1 mps 591 mmHg 66%
    17:00 +13°C° 0.6 mm 1 mps 590 mmHg 74%
    18:00 +12°C° 0.6 mm 1 mps 590 mmHg 82%
    19:00 +10°C° 0.6 mm 1 mps 589 mmHg 91%
    20:00 +9°C° 0.2 mm 1 mps 589 mmHg 92%
    21:00 +9°C° 0.2 mm 1 mps 589 mmHg 92%
    22:00 +8°C° 0.2 mm 1 mps 589 mmHg 93%
    23:00 +8°C° 0 mm 1 mps 589 mmHg 93%

    22 August, Thursday

    Time Temperature Precipitation Wind Pressure Humidity
    00:00 +7°C° 0 mm 1 mps 588 mmHg 94%
    01:00 +7°C° 0 mm 1 mps 588 mmHg 94%
    02:00 +7°C° 0 mm 1 mps 588 mmHg 93%
    03:00 +7°C° 0 mm 1 mps 588 mmHg 92%
    04:00 +7°C° 0 mm 1 mps 588 mmHg 91%
    05:00 +8°C° 0 mm 1 mps 588 mmHg 88%
    06:00 +8°C° 0 mm 0 mps 589 mmHg 85%
    07:00 +8°C° 0 mm 0 mps 589 mmHg 82%
    08:00 +11°C° 0 mm 1 mps 590 mmHg 73%
    09:00 +13°C° 0 mm 1 mps 591 mmHg 65%
    10:00 +15°C° 0 mm 1 mps 592 mmHg 56%
    11:00 +16°C° 0.2 mm 1 mps 592 mmHg 55%
    12:00 +16°C° 0.2 mm 1 mps 592 mmHg 54%
    13:00 +17°C° 0.2 mm 2 mps 592 mmHg 54%
    14:00 +16°C° 0.5 mm 2 mps 592 mmHg 58%
    15:00 +15°C° 0.5 mm 1 mps 591 mmHg 62%
    16:00 +15°C° 0.5 mm 1 mps 591 mmHg 67%
    17:00 +13°C° 0.4 mm 1 mps 590 mmHg 73%
    18:00 +12°C° 0.4 mm 1 mps 590 mmHg 79%
    19:00 +10°C° 0.4 mm 0 mps 589 mmHg 85%
    20:00 +9°C° 0.2 mm 0 mps 589 mmHg 84%
    21:00 +9°C° 0.2 mm 0 mps 589 mmHg 84%
    22:00 +8°C° 0.2 mm 0 mps 589 mmHg 84%
    23:00 +8°C° 0 mm 0 mps 589 mmHg 85%
    Show more